Content
SEND FEEDBACK

Daily
Averages
Monthly
Summary
United States of America

CHATHAM, MASSACHUSETTS


Home > North America > United States > Massachusetts
Elevation: 66 feet     Latitude: 41 41N     Longitude: 069 59W

WEATHER
 
SELECT A DAY
Number of Records: 208,309;   Date Range: 7/1/96 - 12/16/14
 
SHARE

PRINT THIS DATA

[ ← Previous Day ]
WEATHER ALMANAC - JANUARY 3, 2013
[ Next Day → ]
[ °C ]   °F
Weather ElementAverageHighLow
Temperature19 °F24.1 °F (2:52 pm)14 °F (9:03 am)
Dewpoint8.7 °F12.9 °F (10:52 am)1.9 °F (6:52 pm)
Humidity65.4 %86 % (8:37 am)44 % (2:52 pm)
Barometer30.08 in30.13 in (8:52 am)30.04 in (1:52 pm)
Wind Speed4.5 mph6.9 mph (2:52 am)
Wind Gust17.3 mph (3:52 am)
Weather ElementAverage
Visibility7.8 mi
Wind DirectionSSE (158 °)

Weather ElementTotal
Precipitation---
Heating Degree Days46 (Base 65)
Averaged from 30 records on January 3, 2013
WEATHER CONDITIONS BREAKOUT
WIND DIRECTION BREAKOUT
WEATHER BY HOUR - JANUARY 3, 2013
[ °C ]   °F
Local TimeTemperatureDewpointHumidityBarometerVisibilityWind DirectionWind SpeedGust SpeedPrecipitationEventsConditions
2:52 AM18.0 °F7.0 °F62 %30.09 in10.0 miNW (320°)6.9 mphClear
3:52 AM17.1 °F7.0 °F65 %30.09 in10.0 miVariable6.9 mph17.3 mphClear
4:29 AM17.6 °F8.6 °F68 %30.08 in10.0 miNW (320°)6.9 mphMostly Cloudy
4:52 AM17.1 °F9.0 °F71 %30.09 in10.0 miNW (310°)5.8 mphMostly Cloudy
5:52 AM18.0 °F10.0 °F71 %30.10 in10.0 miVariable3.5 mphMostly Cloudy
6:52 AM17.1 °F10.9 °F77 %30.11 in4.0 miVariable4.6 mph0.00 inSnowLight Snow
7:22 AM17.6 °F12.2 °F79 %30.10 in1.8 miCalm0.00 inSnowLight Snow
7:52 AM16.0 °F10.9 °F81 %30.11 in2.0 miWNW (300°)5.8 mph0.00 inSnowLight Snow
8:15 AM15.8 °F10.4 °F79 %30.11 in3.0 miWest (260°)4.6 mph0.00 inSnowLight Snow
8:27 AM15.8 °F10.4 °F79 %30.12 in2.5 miWest (270°)4.6 mph0.00 inSnowLight Snow
8:37 AM15.8 °F12.2 °F86 %30.12 in2.5 miWSW (250°)3.5 mph0.00 inSnowLight Snow
8:52 AM17.1 °F10.9 °F77 %30.13 in2.5 miVariable3.5 mph0.00 inSnowLight Snow
9:03 AM14.0 °F8.6 °F79 %30.13 in1.8 miWSW (240°)4.6 mph0.00 inSnowLight Snow
9:27 AM15.8 °F8.6 °F73 %30.12 in2.5 miSW (230°)4.6 mph0.00 inSnowLight Snow
9:52 AM17.1 °F10.0 °F74 %30.12 in10.0 miNW (310°)5.8 mph0.00 inMostly Cloudy
10:00 AM17.6 °F10.4 °F73 %30.12 in10.0 miWNW (290°)6.9 mphScattered Clouds
10:52 AM19.9 °F12.9 °F74 %30.10 in10.0 miVariable3.5 mphPartly Cloudy
11:52 AM21.9 °F12.9 °F68 %30.07 in10.0 miNNW (330°)5.8 mphClear
12:52 PM21.9 °F10.9 °F63 %30.06 in10.0 miVariable6.9 mphClear
1:52 PM23.0 °F7.0 °F50 %30.04 in10.0 miCalmClear
2:52 PM24.1 °F5.0 °F44 %30.04 in10.0 miSW (230°)4.6 mphClear
3:52 PM23.0 °F5.0 °F46 %30.05 in10.0 miWest (280°)4.6 mphClear
4:52 PM19.9 °F5.0 °F52 %30.04 in10.0 miCalmClear
5:52 PM19.0 °F5.0 °F54 %30.04 in10.0 miWest (260°)3.5 mphClear
6:52 PM19.9 °F1.9 °F46 %30.04 in10.0 miVariable3.5 mphClear
7:52 PM21.0 °F3.9 °F48 %30.06 in10.0 miVariable5.8 mphScattered Clouds
8:52 PM21.9 °F5.0 °F48 %30.06 in10.0 miVariable5.8 mphOvercast
9:52 PM23.0 °F8.1 °F53 %30.06 in10.0 miVariable4.6 mphOvercast
10:52 PM21.9 °F10.0 °F60 %30.06 in10.0 miWest (260°)3.5 mphClear
11:52 PM21.0 °F10.0 °F63 %30.04 in10.0 miWest (280°)4.6 mphPartly Cloudy
Hourly data recorded from KCQX, located miles away from Chatham, Massachusetts







STORIES FROM OUR PARTNERS